Location: Unspecified
(43.4680°N, 87.1740°E)
Time: 05:50:36
(UTC+00:00)

Cosmos 1943 Rocket - Pass Details

Date: 17 April 2021
Orbit: 813 x 843 km, 71.0° (Epoch: 16 May)

Event Time Altitude Azimuth Distance (km) Brightness Sun altitude
Exits shadow 21:20:06 18° 171° (S) 1,969 3.8 -20.8°
Maximum altitude 21:24:01 44° 107° (ESE) 1,145 3.1 -20.2°
Drops below altitude 10° 21:29:21 10° 37° (NE) 2,464 5.7 -19.4°
Sets 21:31:53 0° 31° (NNE) 3,399 6.6 -19.1°
